EST,Max TemperatureF,Mean TemperatureF,Min TemperatureF,Max Dew PointF,MeanDew PointF,Min DewpointF,Max Humidity, Mean Humidity, Min Humidity, Max Sea Level PressureIn, Mean Sea Level PressureIn, Min Sea Level PressureIn, Max VisibilityMiles, Mean VisibilityMiles, Min VisibilityMiles, Max Wind SpeedMPH, Mean Wind SpeedMPH, Max Gust SpeedMPH,PrecipitationIn, CloudCover, Events, WindDirDegrees
2012-12-1,60,47,33,39,35,29,82,65,47,30.36,30.30,30.25,10,10,10,12,2,15,0.00,0,,179
2012-12-2,64,56,48,55,47,38,100,74,48,30.25,30.17,30.12,10,7,2,17,6,28,0.12,5,Rain,204
2012-12-3,63,59,55,55,54,52,100,86,72,30.25,30.21,30.17,10,6,1,9,3,15,0.05,7,Rain,199
2012-12-4,69,59,48,57,51,45,93,71,49,30.20,30.11,30.03,10,8,1,18,7,30,0.31,6,Rain,212
2012-12-5,49,39,29,45,36,22,100,75,50,30.37,30.25,30.15,10,7,0,15,5,21,0.05,3,Fog-Rain,309
2012-12-6,54,39,24,38,26,22,92,62,32,30.35,30.21,30.06,10,10,10,8,3,12,T,1,,124
2012-12-7,53,50,47,52,50,39,100,83,66,30.05,29.97,29.88,10,5,0,8,2,13,0.65,8,Fog-Rain,180
2012-12-8,57,54,50,55,52,46,100,92,83,30.06,29.91,29.86,10,7,0,12,3,15,0.27,8,Fog-Rain,230
2012-12-9,61,52,43,54,47,41,96,87,77,30.10,30.01,29.79,10,9,4,15,6,18,0.19,8,Rain,95
2012-12-10,62,49,36,54,46,34,100,84,67,29.83,29.69,29.57,10,7,1,15,6,24,0.60,8,Rain-Snow,255
2012-12-11,39,35,30,36,31,27,92,78,64,30.27,30.04,29.83,10,8,0,9,5,15,0.04,8,Fog-Rain-Snow,245
2012-12-12,41,33,25,27,25,23,92,71,50,30.46,30.40,30.27,10,10,6,6,1,8,0.00,0,,56
2012-12-13,48,35,21,28,22,16,92,62,31,30.45,30.39,30.32,10,8,1,5,1,8,0.00,0,,338
2012-12-14,50,37,23,29,24,21,88,61,33,30.36,30.31,30.25,10,10,9,10,3,17,0.00,0,,203
2012-12-15,57,44,31,35,26,21,78,51,24,30.24,30.10,29.94,10,10,10,13,3,16,T,3,Rain,154
2012-12-16,60,55,50,50,46,35,77,62,47,29.90,29.82,29.74,10,10,10,13,6,15,0.00,7,,191
2012-12-17,59,54,49,52,50,46,100,86,72,29.78,29.68,29.53,10,7,1,9,2,16,1.00,8,Rain,212
2012-12-18,49,43,37,45,37,30,93,82,70,29.86,29.72,29.55,10,10,5,15,7,20,0.07,7,Rain,239
2012-12-19,46,41,35,37,35,32,92,81,70,30.18,30.01,29.81,10,9,4,9,3,15,0.00,6,,222
2012-12-20,52,44,35,45,37,30,92,71,50,30.14,29.72,29.39,10,8,3,20,8,29,0.71,5,Rain,148
2012-12-21,42,36,29,34,26,23,92,76,59,29.77,29.55,29.44,10,4,0,18,10,29,T,8,Fog-Snow,232
2012-12-22,32,29,25,28,24,19,92,78,63,30.15,29.97,29.74,10,6,1,16,9,28,0.03,8,Snow,256
2012-12-23,44,33,22,25,21,17,88,66,44,30.12,30.02,29.93,10,10,10,14,4,20,0.15,0,,208
2012-12-24,42,33,24,41,33,23,100,80,60,30.01,29.87,29.77,10,8,2,12,4,16,0.07,5,Rain,181
2012-12-25,41,37,32,39,32,28,93,85,76,30.20,30.11,29.90,10,9,6,13,5,15,0.00,8,,342
2012-12-26,37,35,32,32,28,26,82,76,70,30.12,29.71,29.54,10,6,2,16,7,29,0.54,7,Rain-Snow-Hail,87
2012-12-27,32,31,29,31,27,25,92,85,78,30.14,29.93,29.61,10,7,2,15,7,28,0.00,8,Snow,269
2012-12-28,33,31,29,27,25,24,85,79,72,30.18,30.09,29.92,10,10,7,7,1,10,0.05,6,,22
2012-12-29,34,32,30,34,31,27,100,88,75,29.97,29.72,29.63,10,4,1,16,5,24,0.32,8,Rain-Snow,240
2012-12-30,30,27,24,27,23,19,92,81,69,30.42,30.23,29.94,10,6,2,14,8,25,T,8,Snow,258
2012-12-31,35,29,22,29,25,18,92,74,56,30.38,30.16,30.04,10,7,1,18,8,26,0.03,6,Snow,206